Key West, FL

4:54 PM EDT on September 25, 2016 (GMT -0400)
Key West International

Weather History for KEYW - October, 2013

Change the Weather History Date:

Wednesday, October 30, 2013

  Actual Average Record
Temperature  
Mean Temperature 80 °F 78 °F  
Max Temperature 84 °F 82 °F 89 °F (1993)
Min Temperature 76 °F 74 °F 59 °F (1910)
Degree Days  
Heating Degree Days 0 0  
Month to date heating degree days 0 0  
Since 1 July heating degree days 0 0  
Cooling Degree Days 15 13  
Month to date cooling degree days 508 459  
Year to date cooling degree days 4370 4194  
Growing Degree Days 30 (Base 50)    
Moisture  
Dew Point 68 °F    
Average Humidity 69    
Maximum Humidity 82    
Minimum Humidity 55    
Precipitation  
Precipitation 0.00 in 0.11 in 3.61 in (1933)
Month to date precipitation 1.04 4.83  
Year to date precipitation 41.35 35.21  
Snow  
Snow 0.00 in - - ()
Month to date snowfall 0.0  
Since 1 July snowfall 0.0  
Since 1 September snowfall 0.0  
Snow Depth 0.00 in    
Sea Level Pressure  
Sea Level Pressure 30.10 in    
Wind  
Wind Speed 11 mph (ENE)    
Max Wind Speed 20 mph    
Max Gust Speed 27 mph    
Visibility 10 miles    
Events      
T = Trace of Precipitation, MM = Missing Value Source: NWS Daily Summary

Daily Weather History Graph

Daily Weather History Graph

Search for Another Location

Airport or City:

Trip Planner

Search our weather history database for the weather conditions in past years. The results will help you decide how hot, cold, wet, or windy it might be!

Date:

Astronomy

Oct. 30, 2013 Rise Set
Actual Time 7:32 AM EDT 6:48 PM EDT
Civil Twilight 7:09 AM EDT 7:11 PM EDT
Nautical Twilight 6:42 AM EDT 7:38 PM EDT
Astronomical Twilight 6:15 AM EDT 8:05 PM EDT
Moon 3:45 AM EDT (10/30) 4:11 PM EDT (10/30)
Length of Visible Light 12h 02m
Length of Day
11h 15m
Waning Crescent, 17% of the Moon is Illuminated
Oct 30
Waning Crescent
Nov 3
New
Nov 10
First Quarter
Nov 17
Full
Nov 25
Last Quarter

Hourly Weather History & Observations

Time (EDT) Temp. Heat Index Dew Point Humidity Pressure Visibility Wind Dir Wind Speed Gust Speed Precip Events Conditions
12:53 AM 77.0 °F - 70.0 °F 79% 30.14 in 10.0 mi ENE 5.8 mph - N/A   Clear
1:53 AM 77.0 °F - 70.0 °F 79% 30.12 in 10.0 mi NE 6.9 mph - N/A   Clear
2:53 AM 75.9 °F - 70.0 °F 82% 30.10 in 10.0 mi NE 8.1 mph - N/A   Clear
3:53 AM 77.0 °F - 70.0 °F 79% 30.09 in 10.0 mi NE 9.2 mph - N/A   Partly Cloudy
4:53 AM 77.0 °F - 69.1 °F 76% 30.09 in 10.0 mi NE 8.1 mph - N/A   Clear
5:53 AM 75.9 °F - 68.0 °F 76% 30.09 in 10.0 mi NE 8.1 mph - N/A   Clear
6:53 AM 75.9 °F - 68.0 °F 76% 30.11 in 10.0 mi NE 10.4 mph - N/A   Clear
7:53 AM 75.9 °F - 70.0 °F 82% 30.13 in 10.0 mi NE 8.1 mph - N/A   Clear
8:53 AM 78.1 °F - 69.1 °F 74% 30.14 in 10.0 mi ENE 9.2 mph - N/A   Clear
9:53 AM 80.1 °F 82.7 °F 68.0 °F 67% 30.14 in 10.0 mi ENE 12.7 mph 24.2 mph N/A   Clear
10:53 AM 82.0 °F 84.5 °F 66.9 °F 60% 30.16 in 10.0 mi ENE 12.7 mph 18.4 mph N/A   Clear
11:53 AM 82.9 °F 85.0 °F 66.0 °F 56% 30.15 in 10.0 mi NE 11.5 mph 21.9 mph N/A   Clear
12:53 PM 82.9 °F 85.8 °F 68.0 °F 60% 30.13 in 10.0 mi ENE 12.7 mph 18.4 mph N/A   Scattered Clouds
1:53 PM 81.0 °F 83.8 °F 68.0 °F 65% 30.10 in 10.0 mi NE 12.7 mph - N/A   Mostly Cloudy
2:53 PM 82.9 °F 85.4 °F 66.9 °F 58% 30.07 in 10.0 mi East 17.3 mph 24.2 mph N/A   Partly Cloudy
3:53 PM 84.0 °F 86.5 °F 66.9 °F 56% 30.06 in 10.0 mi East 15.0 mph 21.9 mph N/A   Clear
4:53 PM 82.0 °F 84.5 °F 66.9 °F 60% 30.06 in 10.0 mi East 15.0 mph 24.2 mph N/A   Partly Cloudy
5:53 PM 81.0 °F 83.3 °F 66.9 °F 62% 30.06 in 10.0 mi East 16.1 mph 21.9 mph N/A   Clear
6:53 PM 79.0 °F - 66.9 °F 66% 30.07 in 10.0 mi ENE 13.8 mph 20.7 mph N/A   Clear
7:53 PM 78.1 °F - 68.0 °F 71% 30.09 in 10.0 mi ENE 12.7 mph 19.6 mph N/A   Clear
8:53 PM 78.1 °F - 68.0 °F 71% 30.09 in 10.0 mi ENE 10.4 mph - N/A   Clear
9:53 PM 78.1 °F - 68.0 °F 71% 30.11 in 10.0 mi ENE 9.2 mph - N/A   Clear
10:53 PM 77.0 °F - 69.1 °F 76% 30.10 in 10.0 mi ENE 9.2 mph - N/A   Clear
11:53 PM 77.0 °F - 69.1 °F 76% 30.10 in 10.0 mi ENE 6.9 mph - N/A   Partly Cloudy